Regional Weather Roundup
Issued by NWS

Home | Current Version | Previous Version | Graphics & Text | Print | Product List | Glossary On
Versions: 1 2 3 4 5 6 7 8 9 10 11 12 13 14 15 16 17 18 19 20 21 22 23 24 25
000
ASUS45 KPSR 070510
RWRAZ

ARIZONA HOURLY REGIONAL WEATHER ROUNDUP
NATIONAL WEATHER SERVICE PHOENIX AZ
1000 PM MST TUE DEC 06 2016

NOTE: FAIR INDICATES FEW OR NO CLOUDS BELOW 12,000 FEET WITH NO
SIGNIFICANT WEATHER AND/OR OBSTRUCTIONS TO VISIBILITY.

AZZ001>003-036-070600-
NORTHWEST ARIZONA

CITY           SKY/WX    TMP DP  RH WIND       PRES   REMARKS
BULLHEAD CITY  PTCLDY    52  30  43 SE5       29.85R
KINGMAN        CLEAR     47  21  35 S10       29.87R
$$

AZZ004>008-015-016-018-070600-
NORTH CENTRAL ARIZONA

CITY           SKY/WX    TMP DP  RH WIND       PRES   REMARKS
GRAND CANYON   CLEAR     31  29  92 SW8       29.91R WCI  23
PRESCOTT       MOCLDY    37  36  96 SE7       29.94R WCI  32
FLAGSTAFF      CLEAR     31  27  85 SW16      29.92R WCI  20
PAYSON         MOCLDY    37  32  81 CALM      29.99R
PAGE           CLEAR     44  14  29 S3        29.78R
$$

AZZ009>014-017-070600-
NORTHEAST ARIZONA

CITY           SKY/WX    TMP DP  RH WIND       PRES   REMARKS
WINSLOW        CLEAR     38  26  62 S7        29.89R WCI  33
SAINT JOHNS    PTCLDY    41  24  51 W14       29.90R
WINDOW ROCK    CLEAR     35  23  61 SW21G28   29.86R WCI  24
SHOW LOW       MOCLDY    36  25  64 S20       29.95R WCI  25
$$

AZZ023-070600-
GREATER PHOENIX AREA

CITY           SKY/WX    TMP DP  RH WIND       PRES   REMARKS
PHOENIX        CLOUDY    57  45  64 CALM      29.89R
BUCKEYE        CLOUDY    52  45  76 SE7       29.92R
LUKE AFB       MOCLDY    54  45  71 CALM      29.89R
DEER VALLEY    MOCLDY    52  44  74 E3        29.91R
SCOTTSDALE     MOCLDY    54  44  69 CALM      29.92R
$$

AZZ027-028-070600-
SOUTHWEST MARICOPA COUNTY AND PINAL COUNTY

CITY           SKY/WX    TMP DP  RH WIND       PRES   REMARKS
CASA GRANDE    NOT AVBL
GILA BEND      FAIR      56  45  66 SE7       29.89R
$$

AZZ503-504-507>509-070600-
SOUTHEAST ARIZONA

CITY           SKY/WX    TMP DP  RH WIND       PRES   REMARKS
TUCSON         MOCLDY    55  30  38 E7        29.96R
DAVIS-MONTHAN  CLOUDY    50  29  44 SE8       29.96R
NOGALES        MOCLDY    52  36  54 SE7       30.00R
SIERRA VISTA   MOCLDY    53  33  47 SW12      30.01R
DOUGLAS        PTCLDY    52  32  46 SW10      30.00R
SAFFORD        MOCLDY    43  25  49 E5        29.93R
$$

AZZ020-021-025-026-031-070600-
SOUTHWEST ARIZONA

CITY           SKY/WX    TMP DP  RH WIND       PRES   REMARKS
YUMA           CLOUDY    60  51  72 SW7       29.90R
$$

CAZ031-033-041-043-047-048-061-070600-
SOUTHERN CALIFORNIA

CITY           SKY/WX    TMP DP  RH WIND       PRES   REMARKS
DOWNTOWN L.A.  PTCLDY    55  52  89 CALM      29.99S
L.A. AIRPORT   PTCLDY    57  52  83 W6        30.00R
SAN DIEGO      MOCLDY    60  50  69 SW3       30.03R
BURBANK        CLOUDY    54  46  74 CALM      29.99R
ONTARIO        CLOUDY    53  49  86 W12       29.99R
RIVERSIDE      CLOUDY    56  49  77 CALM      30.00R
PALM SPRINGS   CLOUDY    57  42  57 SE8       29.86F
EL CENTRO NAS  LGT RAIN  63  40  42 W18       29.91R
IMPERIAL       CLOUDY    62  43  49 MISG      29.88R
BLYTHE         CLOUDY    56  41  57 SE6       29.86R
NEEDLES        MOCLDY    60  32  34 S8        29.85R
$$

NVZ020-UTZ003-070600-
SOUTHERN NEVADA-UTAH

CITY           SKY/WX    TMP DP  RH WIND       PRES   REMARKS
LAS VEGAS      PTCLDY    54  19  25 SW7       29.80R
SALT LAKE CITY PTCLDY    25  16  68 S3        29.93R
$$

NMZ009-TXZ055-070600-
NEW MEXICO-WEST TEXAS

CITY           SKY/WX    TMP DP  RH WIND       PRES   REMARKS
ALBUQUERQUE    PTCLDY    38  18  44 S8        29.86R WCI  32
EL PASO        PTCLDY    53  31  42 S7        29.94R
$$


........................KEY........................
SKY/WX - SKY CONDITION/WEATHER
TMP    - TEMPERATURE IN FAHRENHEIT
DP     - DEW POINT IN FAHRENHEIT
RH     - RELATIVE HUMIDITY IN PERCENT
WIND   - DIRECTION AND SPEED IN MILES PER HOUR (MPH)
VRB    - VARIABLE WIND DIRECTION
PRES   - MEAN SEA LEVEL PRESSURE IN INCHES OF MERCURY
         F - FALLING PRESSURE   R - RISING PRESSURE
         S - STEADY PRESSURE
VSB    - VISIBILITY IN MILES
HX     - HEAT INDEX IN FAHRENHEIT
WCI    - WIND CHILL INDEX IN FAHRENHEIT
TC     - TEMPERATURE IN CELSIUS WHICH IS ALSO KNOWN AS
         TEMPERATURE IN CENTIGRADE
AFB    - AIR FORCE BASE
         LUKE AFB IS LUKE AIR FORCE BASE
         DAVIS-MONTHAN IS DAVIS-MONTHAN AIR FORCE BASE
NAS    - NAVAL AIR STATION
         EL CENTRO NAS IS EL CENTRO NAVAL AIR STATION
N/A    - NOT AVAILABLE





USA.gov is the U.S. government's official web portal to all federal, state and local government web resources and services.